Location: Alfortville
(48.8058°N, 2.4204°E)
Time: 04:19:49
(UTC+00:00)

USA 229 DEB - Pass Details

Date: 02 June 2022
Orbit: 934 x 1278 km, 63.4° (Epoch: 24 May)

Event Time Altitude Azimuth Distance (km) Brightness Sun altitude
Rises 22:43:31 0° 317° (NW) 3,962 7.8 -17.5°
Reaches altitude 10° 22:46:09 10° 315° (NW) 3,047 7.0 -17.6°
Maximum altitude 22:53:24 66° 235° (SW) 1,312 4.0 -17.9°
Enters shadow 22:58:00 26° 162° (SSE) 2,208 4.7 -18.0°
